SCP
0 -0 -0 -0 -0 -0 -0 -0 -0 -0 -0 -0 -0 -0 -0 -0 -0 0 0 0 0 0 0 0 0 0 0 0 0 0 0 0 0 0 0 0 0 0 0 -0 -0 0 0 0 -0 -0 -0
0 0 -0 -0 -0 -0 -0 -0 -0 -0 -0 -0 -0 -0 -0 -0 -0 -0 0 0 0 0 0 0 0 0 0 0 0 0 0 0 0 0 0 0 0 0 0 0 0 0 0 0 0 0 0
-0 -0 -0 -0 -0 -0 -0 -0 -0 -0 -0 -0 -0 -0 -0 -0 -0 -0 0 0 0 0 -0 0 0 -0 0 0 0 0 0 0 0 0 0 0 0 0 0 0 0 0 0 0 0 0 0
-0 -0 -0 -0 -0 -0 -0 -0 -0 -0 -0 -0 -0 -0 -0 -0 -0 -0 -0 0 0 0 0 -0 -0 0 0 0 0 0 0 0 0 0 0 0 0 0 0 0 0 0 0 0 0 0 0
-0 -0 -0 -0 -0 -0 -0 -0 -0 -0 -0 -0 -0 -0 -0 -0 -0 -0 -0 0 0 -0 0 0 0 0 0 0 0 0 0 0 0 0 0 0 0 0 0 0 0 0 0 0 0 -0 -0
0 -0 -0 -0 -0 -0 -0 -0 -0 -0 -0 -0 -0 -0 -0 -0 -0 -0 -0 0 0 -0 0 0 0 0 0 0 0 0 0 0 0 0 0 0 0 0 0 0 0 0 0 0 0 -0 0
0 -0 -0 -0 -0 -0 -0 -0 -0 -0 -0 -0 -0 -0 -0 -0 -0 0 0 -0 0 0 0 0 0 0 0 0 0 0 0 0 0 0 0 0 0 0 0 0 0 0 0 0 0 0 0
0 -0 -0 -0 -0 -0 -0 -0 -0 -0 -0 -0 -0 -0 -0 -0 0 0 0 0 0 0 0 0 0 0 0 0 0 0 0 0 0 0 0 0 0 0 0 0 0 0 0 0 0 0 0
0 0 -0 -0 -0 -0 -0 -0 -0 -0 -0 -0 -0 -0 -0 -0 -0 0 0 0 0 0 0 0 0 0 0 0 0 0 0 0 0 0 0 0 0 0 0 0 0 0 0 0 0 0 0
0 0 -0 -0 -0 -0 -0 -0 -0 -0 -0 -0 -0 -0 -0 -0 0 0 0 0 0 0 0 -0 0 0 0 0 0 0 0 0 0 0 0 0 0 0 0 0 0 0 0 0 0 0 0
0 0 -0 -0 -0 -0 -0 -0 -0 -0 -0 -0 -0 -0 0 0 0 0 0 0 0 0 0 0 0 0 0 0 0 0 0 0 0 0 0 0 0 0 0 0 0 0 0 0 0 0 0
0 0 0 -0 -0 -0 -0 -0 -0 -0 -0 -0 -0 -0 0 0 0 0 0 0 0 0 0 0 0 0 0 0 0 0 0 0 0 0 0 0 0 0 0 0 0 -0 0 0 0 0 0
0 0 0 0 -0 -0 -0 -0 -0 -0 -0 -0 -0 -0 0 0 0 0 0 0 0 0 0 0 0 0 0 0 0 0 0 0 0 0 0 0 0 0 0 0 0 0 0 0 0 0 0
0 0 0 -0 -0 -0 -0 -0 -0 -0 -0 -0 -0 0 0 -0 -0 0 0 0 0 0 0 0 0 -0 0 0 0 0 0 0 0 0 0 0 0 0 0 0 0 0 0 0 0 0 0
-0 0 0 -0 -0 -0 -0 -0 0 -0 -0 -0 -0 0 0 -0 0 0 0 0 0 0 0 0 0 0 0 0 0 0 0 0 0 0 0 0 0 0 0 0 0 0 0 0 0 0 0
0 0 0 0 -0 -0 -0 -0 -0 -0 -0 -0 0 0 0 -0 0 0 0 0 0 0 0 0 0 0 0 0 0 0 0 0 0 0 0 0 0 0 0 0 0 0 0 0 0 0 0
0 0 -0 0 -0 -0 -0 -0 -0 -0 -0 0 0 0 -0 0 0 0 0 0 0 0 0 0 0 0 0 0 0 0 0 0 0 0 0 0 0 0 0 0 0 0 0 0 0 0 0
0 0 0 0 -0 -0 -0 -0 -0 -0 -0 0 0 0 0 0 0 0 0 0 0 0 0 0 0 0 0 0 0 0 0 0 0 0 0 0 0 0 0 0 0 0 0 0 0 0 0
0 0 0 0 0 -0 -0 -0 -0 -0 0 0 0 0 0 0 0 0 0 0 0 0 0 0 0 0 0 0 0 0 0 0 0 0 0 0 0 0 0 0 0 0 0 0 0 0 0
0 0 0 0 0 0 -0 -0 -0 -0 0 0 0 0 0 0 0 0 0 0 0 0 0 0 0 0 0 0 0 0 0 0 0 0 0 0 0 0 0 0 0 0 0 0 0 0 -0
0 0 0 0 0 0 0 -0 -0 -0 -0 0 0 0 0 0 0 0 0 0 0 0 0 0 0 0 0 0 0 0 0 0 0 0 0 0 0 0 0 0 0 0 0 0 0 0 0
0 0 0 0 0 0 0 0 0 -0 0 0 0 0 0 0 0 0 0 0 0 0 0 0 0 0 0 0 0 0 0 0 0 0 0 0 0 0 0 0 0 0 0 0 0 0 0
0 0 0 0 0 0 0 0 0 0 0 0 0 0 0 0 0 0 0 0 0 0 0 0 0 0 0 0 0 0 0 0 0 0 0 0 0 0 0 0 0 0 0 0 0 0 0
0 0 0 0 0 0 0 0 0 0 0 0 0 0 0 0 0 0 0 0 0 0 0 0 0 0 0 0 0 0 0 0 0 0 0 0 0 0 0 0 0 0 0 0 0 0 0
0 0 0 0 0 0 0 0 0 0 0 0 0 0 0 0 0 0 0 0 0 0 0 0 0 0 0 0 0 0 0 0 0 0 0 0 0 0 0 0 0 0 0 0 0 -0 0
0 0 0 0 0 0 0 0 0 0 0 0 0 0 0 0 0 0 0 0 0 0 0 0 0 0 0 0 0 0 0 0 0 0 0 0 -0 0 0 0 0 0 0 0 0 -0 0
0 0 0 0 0 0 0 0 0 0 0 0 0 0 0 0 0 0 0 0 0 0 0 0 0 0 0 0 0 0 0 0 0 0 0 0 0 0 0 0 0 0 0 -0 -0 -0 -0
0 0 0 0 0 0 0 0 0 0 0 0 0 0 0 0 0 0 0 0 0 0 0 0 0 0 0 0 0 0 0 0 0 0 0 0 0 0 0 0 0 0 -0 -0 0 -0 0
0 0 0 0 0 0 0 0 0 0 0 0 0 0 0 0 0 0 0 0 0 0 0 0 0 0 0 0 0 0 0 0 0 0 0 0 0 0 0 0 0 0 0 0 0 -0 -0
Wind_Speed_500mb
61 60 59 58 55 53 50 48 44 39 35 32 28 23 20 21 24 23 15 11 15 19 18 14 10 12 12 7 6 13 21 21 21 23 28 35 37 25 11 15 33 3 10 38 53 59 55
66 64 62 61 59 56 52 47 42 38 35 31 27 23 22 24 24 20 12 12 16 17 14 10 11 18 8 5 9 14 15 26 33 11 19 19 15 21 14 19 2 14 38 43 41 49 46
67 67 65 63 61 59 55 49 42 37 34 30 25 24 25 27 24 16 14 14 13 11 7 5 12 21 8 8 3 8 18 24 22 24 20 22 18 10 12 14 13 16 18 25 34 25 12
68 68 67 64 62 61 58 53 47 38 31 29 23 24 25 28 22 16 13 12 11 8 2 6 14 23 10 6 6 5 11 14 19 10 24 25 24 26 13 13 13 12 3 6 15 11 22
66 67 68 66 63 60 58 54 49 42 31 25 20 21 22 24 20 17 12 6 4 5 6 13 17 15 11 6 9 8 17 9 20 20 26 35 36 31 16 5 11 8 10 11 13 16 10
64 67 69 68 65 62 58 54 51 46 36 24 17 14 17 18 15 18 19 12 14 14 18 25 23 16 6 11 7 22 10 11 18 20 31 37 9 2 8 10 10 15 9 12 14 12 8
62 65 68 68 68 64 59 56 52 47 41 30 17 12 9 10 9 14 23 19 27 5 20 31 36 31 40 6 20 29 32 21 14 13 6 16 12 10 14 17 23 15 13 16 14 8 10
61 64 66 67 68 66 63 58 53 49 43 36 25 10 7 3 3 8 15 20 26 26 22 38 41 43 41 37 33 44 10 17 4 3 11 14 7 10 21 17 17 23 17 31 21 7 3
60 62 65 66 67 67 65 61 57 51 46 41 32 14 1 6 4 12 20 18 16 29 9 25 14 21 27 22 38 40 26 18 6 1 10 6 19 27 21 19 23 19 18 20 16 11 3
58 61 64 66 67 67 67 63 58 53 47 43 35 17 4 8 5 17 24 23 31 29 8 12 5 6 14 24 12 24 24 23 4 13 12 9 15 15 21 9 15 6 21 12 24 17 7
57 60 63 66 68 68 67 66 60 56 47 41 33 18 3 7 7 12 21 20 22 15 6 4 6 13 16 10 26 21 21 14 14 16 6 21 8 9 8 4 6 8 22 15 15 7 1
55 59 62 65 69 72 71 67 62 57 51 40 31 16 4 12 5 15 21 26 9 9 5 7 8 10 9 9 13 29 6 16 21 7 5 6 8 6 6 6 5 15 16 13 6 4 5
54 57 61 65 69 72 72 70 66 59 54 41 29 14 8 12 7 16 23 6 9 7 9 11 9 11 9 14 14 21 13 13 7 11 6 7 2 3 16 12 10 20 13 9 11 9 8
52 56 59 64 68 71 70 69 67 60 56 45 28 8 7 12 1 15 20 9 7 3 8 9 9 13 9 20 14 21 18 17 12 7 4 7 11 5 13 6 8 10 8 7 10 6 27
51 55 58 63 66 67 66 68 69 62 54 46 22 2 9 6 9 14 4 9 2 6 8 8 10 9 11 26 13 16 14 6 9 13 6 9 7 13 6 3 6 9 4 7 0 6 5
49 53 58 62 65 66 66 66 69 66 58 46 13 9 8 6 13 1 9 5 8 4 4 5 7 6 9 10 12 15 7 6 4 4 7 6 14 11 0 11 5 4 7 5 5 6 9
48 52 55 59 62 65 66 67 67 68 60 43 12 6 8 6 9 2 5 3 7 27 4 4 2 4 4 6 6 7 10 17 1 7 4 5 6 9 7 5 16 10 6 6 6 6 6
47 49 51 55 60 64 66 66 64 67 63 47 15 6 7 10 6 5 5 7 16 18 19 4 6 4 3 7 7 6 10 6 34 13 7 5 6 8 14 35 20 12 13 7 7 10 11
45 46 49 54 58 62 66 66 60 57 61 54 19 13 15 8 6 7 12 9 5 12 13 9 4 7 4 5 8 7 13 19 27 16 7 6 4 8 20 12 10 2 8 10 7 4 13
42 43 45 50 54 59 65 64 60 50 46 39 16 9 12 15 11 5 9 10 13 28 6 13 2 6 7 5 7 14 25 14 31 41 38 10 10 17 24 29 9 27 34 31 12 11 25
36 39 42 48 53 57 63 65 60 50 42 32 18 8 13 9 10 17 6 5 9 12 14 21 10 11 9 9 9 14 9 17 17 40 6 8 14 13 21 29 23 31 39 47 34 34 28
33 37 40 47 52 56 61 62 61 53 40 26 11 15 16 23 27 17 14 10 10 14 5 8 9 16 12 11 11 10 8 9 17 13 13 5 13 9 17 25 28 41 41 44 43 26 12
33 36 39 44 48 52 57 56 56 52 46 20 20 17 7 13 13 7 5 10 12 19 15 29 20 11 10 5 26 42 55 63 50 24 31 10 7 4 21 13 23 20 27 14 10 8 8
30 34 41 45 47 48 53 50 48 46 43 31 22 15 8 8 8 6 25 26 12 23 10 23 39 9 16 44 43 43 54 44 38 36 33 7 7 6 13 11 10 10 6 6 16 16 23
33 39 43 48 47 44 47 47 42 39 36 29 17 12 8 7 13 28 22 18 28 33 23 28 20 40 48 30 9 13 10 13 9 13 19 12 6 5 7 6 24 14 4 3 10 36 6
33 36 43 47 46 41 43 43 42 38 32 24 12 12 8 13 8 16 18 15 9 7 14 14 44 34 27 4 6 4 6 8 8 16 4 21 5 7 3 7 10 7 9 28 1 19 4
39 43 48 44 43 40 40 39 40 39 33 28 11 10 8 13 18 12 16 12 14 10 7 22 18 23 14 6 1 5 8 7 7 12 16 9 12 8 5 9 14 6 35 17 7 9 33
48 49 45 39 34 35 37 36 37 37 38 30 12 13 17 13 59 23 10 18 30 22 6 15 20 9 9 10 4 6 4 5 7 21 14 7 4 5 7 8 13 47 41 6 13 54 45
41 42 37 32 31 34 34 34 35 34 34 36 30 19 25 31 58 71 77 66 57 40 47 12 10 11 8 4 2 3 6 4 6 10 8 8 4 11 8 12 39 53 38 28 31 38 53
Wind_Direction_500mb
33 32 30 29 29 30 29 27 26 29 32 35 39 42 41 26 13 11 25 67 94 115 123 114 81 24 25 47 56 64 45 27 27 32 7 3 22 12 0 333 348 59 323 320 319 319 321
33 33 31 30 29 30 29 30 28 28 29 32 39 42 31 19 11 14 54 97 117 119 118 92 40 22 39 27 30 39 5 6 0 333 7 358 351 341 317 314 334 298 310 305 312 312 321
34 32 31 29 28 28 28 29 30 29 29 30 35 34 29 20 16 35 82 105 129 137 118 47 10 4 337 0 299 347 331 348 358 360 337 330 298 321 302 308 314 300 331 321 304 313 300
33 32 31 28 27 26 24 26 26 26 27 30 34 31 29 21 34 55 86 100 125 145 131 330 345 339 283 283 32 347 330 318 327 352 316 302 311 277 249 273 326 327 157 307 293 3 314
31 30 29 27 25 23 22 22 23 23 21 23 27 26 30 29 46 59 71 78 155 199 294 307 320 332 299 259 252 316 322 257 334 350 327 308 299 244 249 50 349 342 256 246 299 244 261
28 27 27 25 23 21 19 19 17 18 17 12 12 12 23 33 56 53 26 6 318 275 282 305 281 299 261 245 236 327 309 249 294 347 339 336 8 9 7 74 268 271 236 252 261 287 70
27 24 23 22 22 19 17 15 14 13 12 7 354 355 4 28 63 53 41 29 17 12 315 278 276 274 286 235 290 295 316 258 269 327 351 340 39 311 258 236 250 259 276 272 272 217 331
24 22 21 19 18 17 15 12 10 8 7 4 356 337 349 51 74 32 6 14 9 324 295 286 268 265 265 266 287 287 258 204 218 308 344 12 292 261 302 311 318 326 310 299 295 246 287
20 19 18 15 14 12 11 11 7 5 4 1 355 345 337 130 42 18 23 359 349 325 311 299 254 232 245 249 253 275 267 225 178 253 275 187 254 287 305 300 309 294 330 308 276 310 183
17 15 14 11 11 9 7 7 6 2 1 359 359 350 220 202 94 64 31 15 333 322 55 281 175 285 248 240 268 292 263 221 188 222 241 228 254 306 306 326 356 294 329 316 320 340 300
13 11 11 9 7 5 3 3 2 358 359 355 359 351 239 190 138 22 345 331 313 326 50 184 69 36 333 245 287 291 197 185 201 219 162 253 320 291 65 326 358 261 313 285 279 283 8
9 9 7 5 3 360 358 359 359 355 352 353 347 346 225 161 154 347 330 321 297 46 356 19 68 347 348 296 345 20 312 267 273 238 255 255 279 58 128 279 16 302 342 326 346 56 37
5 5 4 2 0 357 354 355 358 355 347 349 339 331 236 208 202 314 350 350 48 98 348 2 346 332 351 346 5 19 346 359 321 335 325 339 173 92 39 355 29 21 28 328 349 358 232
1 1 1 360 358 357 355 353 353 354 347 347 337 320 150 145 258 338 354 56 73 310 9 48 323 323 64 13 345 359 6 349 2 36 336 354 330 49 345 102 293 314 139 167 287 276 292
358 358 359 358 358 357 356 353 350 355 352 348 350 97 147 157 19 352 8 66 273 2 348 359 345 37 353 349 346 14 343 291 47 31 12 349 266 327 306 98 114 296 3 246 59 258 312
357 357 357 358 358 360 359 356 351 355 359 348 22 85 103 35 336 169 73 229 182 85 115 51 65 12 331 336 10 11 299 289 349 99 127 242 292 250 259 359 343 68 197 201 11 304 273
355 357 358 358 0 1 2 -0 355 354 2 357 62 75 111 302 303 14 118 249 343 345 94 128 81 294 336 332 326 291 265 307 258 306 295 113 136 272 23 290 291 324 332 47 149 201 273
353 355 358 360 1 2 3 3 0 354 4 18 26 48 43 316 4 25 48 7 323 352 349 214 146 145 202 294 276 273 244 250 345 21 343 271 193 281 255 275 262 201 207 153 137 279 245
351 354 355 358 360 2 2 4 5 358 1 3 2 340 25 347 68 343 323 297 278 322 344 359 47 16 310 296 334 239 288 325 314 13 322 221 277 335 311 343 6 117 250 231 215 219 223
348 352 353 355 356 359 359 1 6 3 359 4 7 3 344 50 89 89 13 305 334 320 114 39 287 325 15 318 201 287 291 292 310 305 295 225 198 189 255 261 261 289 284 277 227 263 279
343 347 350 352 354 357 359 0 1 9 4 9 22 37 12 318 332 332 199 323 331 353 340 6 8 11 308 286 274 261 293 299 278 282 262 155 243 222 243 262 264 268 279 284 274 266 266
335 340 345 346 350 353 357 358 2 3 16 30 38 7 344 304 305 320 17 358 356 342 295 321 321 303 298 275 238 280 274 252 247 267 246 211 257 244 269 270 269 277 275 275 276 275 245
330 337 341 342 344 348 353 358 1 8 16 37 27 360 330 288 329 8 2 327 310 341 298 351 342 326 309 267 303 295 287 273 265 263 279 208 214 195 271 268 285 275 251 248 261 261 242
322 332 340 338 339 344 349 357 1 6 15 18 13 6 338 284 323 303 324 321 337 341 290 308 324 354 303 327 306 293 284 273 272 262 222 212 144 184 284 316 235 244 199 238 248 253 261
322 329 328 330 332 337 344 350 359 2 7 14 17 18 339 291 282 306 338 304 327 326 299 302 331 331 320 310 325 335 329 355 333 43 68 165 142 254 281 240 284 279 76 258 264 296 144
308 313 320 323 322 329 336 343 349 355 360 5 5 354 321 307 256 324 314 312 313 320 336 283 315 331 336 52 56 293 293 270 307 331 349 8 159 168 249 249 282 213 286 307 156 285 145
301 304 300 305 313 321 330 337 340 344 352 360 11 302 299 274 282 317 290 284 290 346 265 293 328 321 348 25 299 238 253 296 324 329 329 304 304 269 248 251 273 105 347 337 338 301 312
294 294 297 296 303 315 323 330 334 338 338 347 348 299 325 263 292 289 262 233 286 305 219 309 339 357 13 32 53 305 307 309 332 303 280 293 298 319 312 260 285 356 350 326 276 297 299
285 289 289 290 300 309 318 325 327 331 333 331 334 318 289 266 271 287 283 278 268 277 261 252 245 296 266 78 338 288 310 288 225 281 301 300 167 286 242 251 291 311 300 299 302 298 308
Wind_Speed_850mb
61 60 59 58 55 53 50 48 44 39 35 32 28 23 20 21 24 23 15 11 15 19 18 14 10 12 12 7 6 13 21 21 21 23 28 35 37 25 11 15 33 3 10 38 53 59 55
66 64 62 61 59 56 52 47 42 38 35 31 27 23 22 24 24 20 12 12 16 17 14 10 11 18 8 5 9 14 15 26 33 11 19 19 15 21 14 19 2 14 38 43 41 49 46
67 67 65 63 61 59 55 49 42 37 34 30 25 24 25 27 24 16 14 14 13 11 7 5 12 21 8 8 3 8 18 24 22 24 20 22 18 10 12 14 13 16 18 25 34 25 12
68 68 67 64 62 61 58 53 47 38 31 29 23 24 25 28 22 16 13 12 11 8 2 6 14 23 10 6 6 5 11 14 19 10 24 25 24 26 13 13 13 12 3 6 15 11 22
66 67 68 66 63 60 58 54 49 42 31 25 20 21 22 24 20 17 12 6 4 5 6 13 17 15 11 6 9 8 17 9 20 20 26 35 36 31 16 5 11 8 10 11 13 16 10
64 67 69 68 65 62 58 54 51 46 36 24 17 14 17 18 15 18 19 12 14 14 18 25 23 16 6 11 7 22 10 11 18 20 31 37 9 2 8 10 10 15 9 12 14 12 8
62 65 68 68 68 64 59 56 52 47 41 30 17 12 9 10 9 14 23 19 27 5 20 31 36 31 40 6 20 29 32 21 14 13 6 16 12 10 14 17 23 15 13 16 14 8 10
61 64 66 67 68 66 63 58 53 49 43 36 25 10 7 3 3 8 15 20 26 26 22 38 41 43 41 37 33 44 10 17 4 3 11 14 7 10 21 17 17 23 17 31 21 7 3
60 62 65 66 67 67 65 61 57 51 46 41 32 14 1 6 4 12 20 18 16 29 9 25 14 21 27 22 38 40 26 18 6 1 10 6 19 27 21 19 23 19 18 20 16 11 3
58 61 64 66 67 67 67 63 58 53 47 43 35 17 4 8 5 17 24 23 31 29 8 12 5 6 14 24 12 24 24 23 4 13 12 9 15 15 21 9 15 6 21 12 24 17 7
57 60 63 66 68 68 67 66 60 56 47 41 33 18 3 7 7 12 21 20 22 15 6 4 6 13 16 10 26 21 21 14 14 16 6 21 8 9 8 4 6 8 22 15 15 7 1
55 59 62 65 69 72 71 67 62 57 51 40 31 16 4 12 5 15 21 26 9 9 5 7 8 10 9 9 13 29 6 16 21 7 5 6 8 6 6 6 5 15 16 13 6 4 5
54 57 61 65 69 72 72 70 66 59 54 41 29 14 8 12 7 16 23 6 9 7 9 11 9 11 9 14 14 21 13 13 7 11 6 7 2 3 16 12 10 20 13 9 11 9 8
52 56 59 64 68 71 70 69 67 60 56 45 28 8 7 12 1 15 20 9 7 3 8 9 9 13 9 20 14 21 18 17 12 7 4 7 11 5 13 6 8 10 8 7 10 6 27
51 55 58 63 66 67 66 68 69 62 54 46 22 2 9 6 9 14 4 9 2 6 8 8 10 9 11 26 13 16 14 6 9 13 6 9 7 13 6 3 6 9 4 7 0 6 5
49 53 58 62 65 66 66 66 69 66 58 46 13 9 8 6 13 1 9 5 8 4 4 5 7 6 9 10 12 15 7 6 4 4 7 6 14 11 0 11 5 4 7 5 5 6 9
48 52 55 59 62 65 66 67 67 68 60 43 12 6 8 6 9 2 5 3 7 27 4 4 2 4 4 6 6 7 10 17 1 7 4 5 6 9 7 5 16 10 6 6 6 6 6
47 49 51 55 60 64 66 66 64 67 63 47 15 6 7 10 6 5 5 7 16 18 19 4 6 4 3 7 7 6 10 6 34 13 7 5 6 8 14 35 20 12 13 7 7 10 11
45 46 49 54 58 62 66 66 60 57 61 54 19 13 15 8 6 7 12 9 5 12 13 9 4 7 4 5 8 7 13 19 27 16 7 6 4 8 20 12 10 2 8 10 7 4 13
42 43 45 50 54 59 65 64 60 50 46 39 16 9 12 15 11 5 9 10 13 28 6 13 2 6 7 5 7 14 25 14 31 41 38 10 10 17 24 29 9 27 34 31 12 11 25
36 39 42 48 53 57 63 65 60 50 42 32 18 8 13 9 10 17 6 5 9 12 14 21 10 11 9 9 9 14 9 17 17 40 6 8 14 13 21 29 23 31 39 47 34 34 28
33 37 40 47 52 56 61 62 61 53 40 26 11 15 16 23 27 17 14 10 10 14 5 8 9 16 12 11 11 10 8 9 17 13 13 5 13 9 17 25 28 41 41 44 43 26 12
33 36 39 44 48 52 57 56 56 52 46 20 20 17 7 13 13 7 5 10 12 19 15 29 20 11 10 5 26 42 55 63 50 24 31 10 7 4 21 13 23 20 27 14 10 8 8
30 34 41 45 47 48 53 50 48 46 43 31 22 15 8 8 8 6 25 26 12 23 10 23 39 9 16 44 43 43 54 44 38 36 33 7 7 6 13 11 10 10 6 6 16 16 23
33 39 43 48 47 44 47 47 42 39 36 29 17 12 8 7 13 28 22 18 28 33 23 28 20 40 48 30 9 13 10 13 9 13 19 12 6 5 7 6 24 14 4 3 10 36 6
33 36 43 47 46 41 43 43 42 38 32 24 12 12 8 13 8 16 18 15 9 7 14 14 44 34 27 4 6 4 6 8 8 16 4 21 5 7 3 7 10 7 9 28 1 19 4
39 43 48 44 43 40 40 39 40 39 33 28 11 10 8 13 18 12 16 12 14 10 7 22 18 23 14 6 1 5 8 7 7 12 16 9 12 8 5 9 14 6 35 17 7 9 33
48 49 45 39 34 35 37 36 37 37 38 30 12 13 17 13 59 23 10 18 30 22 6 15 20 9 9 10 4 6 4 5 7 21 14 7 4 5 7 8 13 47 41 6 13 54 45
41 42 37 32 31 34 34 34 35 34 34 36 30 19 25 31 58 71 77 66 57 40 47 12 10 11 8 4 2 3 6 4 6 10 8 8 4 11 8 12 39 53 38 28 31 38 53
Wind_Direction_850mb
33 32 30 29 29 30 29 27 26 29 32 35 39 42 41 26 13 11 25 67 94 115 123 114 81 24 25 47 56 64 45 27 27 32 7 3 22 12 0 333 348 59 323 320 319 319 321
33 33 31 30 29 30 29 30 28 28 29 32 39 42 31 19 11 14 54 97 117 119 118 92 40 22 39 27 30 39 5 6 0 333 7 358 351 341 317 314 334 298 310 305 312 312 321
34 32 31 29 28 28 28 29 30 29 29 30 35 34 29 20 16 35 82 105 129 137 118 47 10 4 337 0 299 347 331 348 358 360 337 330 298 321 302 308 314 300 331 321 304 313 300
33 32 31 28 27 26 24 26 26 26 27 30 34 31 29 21 34 55 86 100 125 145 131 330 345 339 283 283 32 347 330 318 327 352 316 302 311 277 249 273 326 327 157 307 293 3 314
31 30 29 27 25 23 22 22 23 23 21 23 27 26 30 29 46 59 71 78 155 199 294 307 320 332 299 259 252 316 322 257 334 350 327 308 299 244 249 50 349 342 256 246 299 244 261
28 27 27 25 23 21 19 19 17 18 17 12 12 12 23 33 56 53 26 6 318 275 282 305 281 299 261 245 236 327 309 249 294 347 339 336 8 9 7 74 268 271 236 252 261 287 70
27 24 23 22 22 19 17 15 14 13 12 7 354 355 4 28 63 53 41 29 17 12 315 278 276 274 286 235 290 295 316 258 269 327 351 340 39 311 258 236 250 259 276 272 272 217 331
24 22 21 19 18 17 15 12 10 8 7 4 356 337 349 51 74 32 6 14 9 324 295 286 268 265 265 266 287 287 258 204 218 308 344 12 292 261 302 311 318 326 310 299 295 246 287
20 19 18 15 14 12 11 11 7 5 4 1 355 345 337 130 42 18 23 359 349 325 311 299 254 232 245 249 253 275 267 225 178 253 275 187 254 287 305 300 309 294 330 308 276 310 183
17 15 14 11 11 9 7 7 6 2 1 359 359 350 220 202 94 64 31 15 333 322 55 281 175 285 248 240 268 292 263 221 188 222 241 228 254 306 306 326 356 294 329 316 320 340 300
13 11 11 9 7 5 3 3 2 358 359 355 359 351 239 190 138 22 345 331 313 326 50 184 69 36 333 245 287 291 197 185 201 219 162 253 320 291 65 326 358 261 313 285 279 283 8
9 9 7 5 3 360 358 359 359 355 352 353 347 346 225 161 154 347 330 321 297 46 356 19 68 347 348 296 345 20 312 267 273 238 255 255 279 58 128 279 16 302 342 326 346 56 37
5 5 4 2 0 357 354 355 358 355 347 349 339 331 236 208 202 314 350 350 48 98 348 2 346 332 351 346 5 19 346 359 321 335 325 339 173 92 39 355 29 21 28 328 349 358 232
1 1 1 360 358 357 355 353 353 354 347 347 337 320 150 145 258 338 354 56 73 310 9 48 323 323 64 13 345 359 6 349 2 36 336 354 330 49 345 102 293 314 139 167 287 276 292
358 358 359 358 358 357 356 353 350 355 352 348 350 97 147 157 19 352 8 66 273 2 348 359 345 37 353 349 346 14 343 291 47 31 12 349 266 327 306 98 114 296 3 246 59 258 312
357 357 357 358 358 360 359 356 351 355 359 348 22 85 103 35 336 169 73 229 182 85 115 51 65 12 331 336 10 11 299 289 349 99 127 242 292 250 259 359 343 68 197 201 11 304 273
355 357 358 358 0 1 2 -0 355 354 2 357 62 75 111 302 303 14 118 249 343 345 94 128 81 294 336 332 326 291 265 307 258 306 295 113 136 272 23 290 291 324 332 47 149 201 273
353 355 358 360 1 2 3 3 0 354 4 18 26 48 43 316 4 25 48 7 323 352 349 214 146 145 202 294 276 273 244 250 345 21 343 271 193 281 255 275 262 201 207 153 137 279 245
351 354 355 358 360 2 2 4 5 358 1 3 2 340 25 347 68 343 323 297 278 322 344 359 47 16 310 296 334 239 288 325 314 13 322 221 277 335 311 343 6 117 250 231 215 219 223
348 352 353 355 356 359 359 1 6 3 359 4 7 3 344 50 89 89 13 305 334 320 114 39 287 325 15 318 201 287 291 292 310 305 295 225 198 189 255 261 261 289 284 277 227 263 279
343 347 350 352 354 357 359 0 1 9 4 9 22 37 12 318 332 332 199 323 331 353 340 6 8 11 308 286 274 261 293 299 278 282 262 155 243 222 243 262 264 268 279 284 274 266 266
335 340 345 346 350 353 357 358 2 3 16 30 38 7 344 304 305 320 17 358 356 342 295 321 321 303 298 275 238 280 274 252 247 267 246 211 257 244 269 270 269 277 275 275 276 275 245
330 337 341 342 344 348 353 358 1 8 16 37 27 360 330 288 329 8 2 327 310 341 298 351 342 326 309 267 303 295 287 273 265 263 279 208 214 195 271 268 285 275 251 248 261 261 242
322 332 340 338 339 344 349 357 1 6 15 18 13 6 338 284 323 303 324 321 337 341 290 308 324 354 303 327 306 293 284 273 272 262 222 212 144 184 284 316 235 244 199 238 248 253 261
322 329 328 330 332 337 344 350 359 2 7 14 17 18 339 291 282 306 338 304 327 326 299 302 331 331 320 310 325 335 329 355 333 43 68 165 142 254 281 240 284 279 76 258 264 296 144
308 313 320 323 322 329 336 343 349 355 360 5 5 354 321 307 256 324 314 312 313 320 336 283 315 331 336 52 56 293 293 270 307 331 349 8 159 168 249 249 282 213 286 307 156 285 145
301 304 300 305 313 321 330 337 340 344 352 360 11 302 299 274 282 317 290 284 290 346 265 293 328 321 348 25 299 238 253 296 324 329 329 304 304 269 248 251 273 105 347 337 338 301 312
294 294 297 296 303 315 323 330 334 338 338 347 348 299 325 263 292 289 262 233 286 305 219 309 339 357 13 32 53 305 307 309 332 303 280 293 298 319 312 260 285 356 350 326 276 297 299
285 289 289 290 300 309 318 325 327 331 333 331 334 318 289 266 271 287 283 278 268 277 261 252 245 296 266 78 338 288 310 288 225 281 301 300 167 286 242 251 291 311 300 299 302 298 308